Regional Weather Roundup
Issued by NWS Newport/Morehead, NC

Current Version | Previous Version | Graphics & Text | Print | Product List | Glossary Off
Versions: 1 2 3 4 5 6 7 8 9 10 11 12 13 14 15 16 17 18 19 20 21 22 23 24 25 26 27 28 29 30 31 32 33 34 35 36 37 38 39 40 41 42 43 44 45 46 47 48 49 50

000
ASUS42 KMHX 281125
RWRMHX
WEATHER ROUNDUP FOR EASTERN NORTH CAROLINA
NATIONAL WEATHER SERVICE NEWPORT/MOREHEAD CITY NC
700 AM EDT WED JUN 28 2017

NOTE: "FAIR" INDICATES FEW OR NO CLOUDS BELOW 12,000 FEET
WITH NO SIGNIFICANT WEATHER AND/OR OBSTRUCTIONS TO VISIBILITY

NCZ015>017-031-032-045>047-102-103-281200-
NORTH COAST

CITY           SKY/WX    TMP DP  RH WIND       PRES   REMARKS
EDENTON        SUNNY     65  59  80 CALM      30.15R
ELIZABETH CITY SUNNY     67  63  87 N12       30.14R
KITTY HAWK     SUNNY     71  62  74 N5        30.12R
MANTEO         SUNNY     72  63  73 NE7       30.13R

$$

NCZ045>047-081-094-103-104-281200-
CENTRAL COAST

CITY           SKY/WX    TMP DP  RH WIND       PRES   REMARKS
FRISCO         NOT AVBL

$$

NCZ095-097-098-100-101-281200-
SOUTHERN COAST

CITY           SKY/WX    TMP DP  RH WIND       PRES   REMARKS
BEAUFORT       MOSUNNY   71  63  75 N7        30.12R
CEDAR ISLAND   NOT AVBL
JACKSONVILLE   SUNNY     66  63  90 CALM      30.13R
PINEY ISLAND   SUNNY    N/A N/A N/A N9        30.12R
WILMINGTON     CLEAR     67  59  75 NE3       30.13R


$$

NCZ011>013-027>030-043-044-078>080-089-090>093-098-281200-
COASTAL PLAIN

CITY           SKY/WX    TMP DP  RH WIND       PRES   REMARKS
AHOSKIE          N/A     60  56  86 N3        30.17R
CLINTON        CLEAR     61  61  99 CALM      30.16R
ELIZABETHTOWN  NOT AVBL
GOLDSBORO      SUNNY     64  60  88 N8        30.14R
GREENVILLE     SUNNY     61  59  94 CALM      30.17R
HAVELOCK       MOSUNNY   65  61  87 CALM      30.13R
KENANSVILLE    SUNNY     59  57  94 CALM      30.16R
KINSTON        SUNNY     61  59  94 N3        30.16R
NEW BERN       SUNNY     65  62  90 CALM      30.14S
RICHLANDS      SUNNY     61  59  93 CALM      30.15R
ROCKY MOUNT    SUNNY     62  57  83 NE5       30.17R
WASHINGTON       N/A    N/A N/A N/A CALM      30.15R
WHITEVILLE     CLEAR     63  61  94 CALM      30.14R

$$

AMZ130-135-150-152-154-156-158-170-250-252-270-ANZ085-086-088-633-658-670-281200-
MARINE OBSERVATIONS

STATION/POSITION TIME  TEMP    WIND        PRES    WAVE   SWELL
                       AIR SEA DIR/SP/G            HT/PER HT/PER
                 (UTC) (F)     (DEG/KT/KT) (MB)    (FT/S) (FT/S)
CHESAPEAKE LIGHT NOT AVBL
64 E VA BEACH    1050   72 74   20/ 17/ 19 1020.1    1/ 8   2/ 8
DUCK             1100   72 74   10/ 13/ 16 1019.5
2 E DUCK         NOT AVBL
OREGON INLET     1100   72 73  350/  3/  5 1019.8
13E OREGON INLT  1048      74                N/A     1/13   2/13
HATTERAS CG      1100   76 78  360/ 13/ 15 1019.5
DIAMOND BUOY     1050   77 79   30/ 10/ 12 1019.1    2/ 6   2/ 6
CAPE LOOKOUT     1100   75      20/  8/ 10 1019.5
BEAUFORT LAB     1100   73 78   10/  7/ 10 1019.3
30 SE NEW RVR IN 1108   77 80   40/ 14/ 17 1019.7
30 SE NEW RVR IN 1043      80                N/A     3/ 4
27 SE WRIGHTSVLE 1108   78 80   60/ 16/ 19 1019.0
5 SE WRIGHTSVLE  1108   76 79   40/ 12/ 19 1019.9
225 S CAPE HAT   1050   79 80  350/  8/  8 1017.7    3/ 7   3/ 7
41 SE CHARLESTON 1110   79 81   30/ 12/ 14 1018.5

$$




USA.gov is the U.S. government's official web portal to all federal, state and local government web resources and services.